Mojave, CA

11:27 AM PDT on October 21, 2017 (GMT -0700)
Mojave

Weather History for KMHV - March, 2014

Change the Weather History Date:

Saturday, March 29, 2014

  Actual Average Record
Temperature  
Mean Temperature 65 °F -  
Max Temperature 75 °F 66 °F 84 °F (1966)
Min Temperature 55 °F 40 °F 25 °F (1977)
Growing Degree Days 15 (Base 50)    
Moisture  
Dew Point 32 °F    
Average Humidity 30    
Maximum Humidity 54    
Minimum Humidity 20    
Precipitation  
Precipitation 0.00 in - - ()
Sea Level Pressure  
Sea Level Pressure 30.00 in    
Wind  
Wind Speed 14 mph (West)    
Max Wind Speed 25 mph    
Max Gust Speed 29 mph    
Visibility 10 miles    
Events      
Averages and records for this station are not official NWS values.
T = Trace of Precipitation, MM = Missing Value Source: NWS Daily Summary

Daily Weather History Graph

Daily Weather History Graph

Search for Another Location

Airport or City:

Trip Planner

Search our weather history database for the weather conditions in past years. The results will help you decide how hot, cold, wet, or windy it might be!

Date:

Astronomy

Mar. 29, 2014 Rise Set
Actual Time 6:43 AM PDT 7:11 PM PDT
Civil Twilight 6:18 AM PDT 7:37 PM PDT
Nautical Twilight 5:48 AM PDT 8:06 PM PDT
Astronomical Twilight 5:17 AM PDT 8:37 PM PDT
Moon 5:52 AM PDT (3/29) 6:23 PM PDT (3/29)
Length of Visible Light 13h 19m
Length of Day
12h 28m
Waning Crescent, 1% of the Moon is Illuminated
Mar 29
Waning Crescent
Mar 30
New
Apr 7
First Quarter
Apr 15
Full
Apr 22
Last Quarter

Hourly Weather History & Observations

Time (PDT) Temp. Dew Point Humidity Pressure Visibility Wind Dir Wind Speed Gust Speed Precip Events Conditions
2:00 AM 57.2 °F 17.6 °F 21% 30.12 in 10.0 mi NW 23.0 mph - N/A   Clear
6:10 AM 57.2 °F 19.4 °F 23% 30.10 in 10.0 mi SW 9.2 mph - N/A   Clear
6:20 AM 57.2 °F 19.4 °F 23% 30.10 in 10.0 mi Calm Calm - N/A   Clear
8:35 AM 62.6 °F 24.8 °F 24% 30.11 in 10.0 mi WNW 19.6 mph 23.0 mph N/A   Clear
9:35 AM 66.2 °F 28.4 °F 24% 30.11 in 10.0 mi West 13.8 mph - N/A   Clear
9:55 AM 66.2 °F 30.2 °F 26% 30.11 in 10.0 mi WSW 11.5 mph - N/A   Clear
10:15 AM 66.2 °F 28.4 °F 24% 30.11 in 10.0 mi West 12.7 mph 16.1 mph N/A   Clear
10:35 AM 68.0 °F 30.2 °F 24% 30.11 in 10.0 mi WNW 10.4 mph - N/A   Clear
10:55 AM 68.0 °F 30.2 °F 24% 30.10 in 10.0 mi SSW 9.2 mph - N/A   Clear
11:15 AM 68.0 °F 28.4 °F 23% 30.10 in 10.0 mi SE 5.8 mph - N/A   Clear
11:35 AM 68.0 °F 30.2 °F 24% 30.09 in 10.0 mi South 8.1 mph - N/A   Clear
11:55 AM 71.6 °F 30.2 °F 22% 30.09 in 10.0 mi WSW 9.2 mph - N/A   Clear
12:15 PM 71.6 °F 30.2 °F 22% 30.07 in 10.0 mi West 6.9 mph - N/A   Clear
12:35 PM 73.4 °F 30.2 °F 20% 30.06 in 10.0 mi South 5.8 mph - N/A   Clear
12:55 PM 75.2 °F 32.0 °F 21% 30.04 in 10.0 mi NNW 3.5 mph - N/A   Clear
1:15 PM 75.2 °F 32.0 °F 21% 30.03 in 10.0 mi WNW 10.4 mph - N/A   Clear
1:35 PM 75.2 °F 32.0 °F 21% 30.02 in 10.0 mi WNW 10.4 mph 21.9 mph N/A   Clear
1:55 PM 75.2 °F 32.0 °F 21% 30.01 in 10.0 mi WNW 20.7 mph 24.2 mph N/A   Partly Cloudy
2:15 PM 75.2 °F 32.0 °F 21% 30.00 in 10.0 mi NW 23.0 mph 27.6 mph N/A   Clear
2:35 PM 75.2 °F 32.0 °F 21% 30.00 in 10.0 mi NW 24.2 mph 28.8 mph N/A   Clear
2:55 PM 75.2 °F 32.0 °F 21% 29.99 in 10.0 mi WNW 20.7 mph 28.8 mph N/A   Clear
3:15 PM 75.2 °F 32.0 °F 21% 29.98 in 10.0 mi NW 19.6 mph 25.3 mph N/A   Clear
3:35 PM 73.4 °F 32.0 °F 22% 29.98 in 10.0 mi NW 23.0 mph 28.8 mph N/A   Clear
3:55 PM 73.4 °F 32.0 °F 22% 29.97 in 10.0 mi WNW 19.6 mph 25.3 mph N/A   Clear
4:15 PM 73.4 °F 32.0 °F 22% 29.97 in 10.0 mi WNW 19.6 mph 25.3 mph N/A   Clear
4:35 PM 71.6 °F 32.0 °F 23% 29.96 in 10.0 mi NW 21.9 mph 27.6 mph N/A   Clear
4:55 PM 71.6 °F 32.0 °F 23% 29.96 in 10.0 mi WNW 23.0 mph 27.6 mph N/A   Clear
5:15 PM 69.8 °F 32.0 °F 25% 29.96 in 10.0 mi WNW 23.0 mph 28.8 mph N/A   Clear
5:35 PM 68.0 °F 32.0 °F 26% 29.96 in 10.0 mi WNW 23.0 mph 28.8 mph N/A   Clear
5:55 PM 68.0 °F 32.0 °F 26% 29.95 in 10.0 mi WNW 20.7 mph - N/A   Clear
6:15 PM 68.0 °F 32.0 °F 26% 29.95 in 10.0 mi WNW 17.3 mph 25.3 mph N/A   Clear
6:35 PM 66.2 °F 32.0 °F 28% 29.95 in 10.0 mi WNW 16.1 mph - N/A   Clear
6:55 PM 66.2 °F 32.0 °F 28% 29.95 in 10.0 mi WNW 13.8 mph - N/A   Clear
7:15 PM 66.2 °F 32.0 °F 28% 29.96 in 10.0 mi WSW 5.8 mph - N/A   Clear
7:30 PM 64.4 °F 32.0 °F 30% 29.95 in 10.0 mi SSW 6.9 mph - N/A   Clear
7:55 PM 64.4 °F 32.0 °F 30% 29.96 in 10.0 mi SW 9.2 mph - N/A   Clear
8:15 PM 62.6 °F 32.0 °F 32% 29.96 in 10.0 mi WSW 9.2 mph - N/A   Clear
8:35 PM 62.6 °F 35.6 °F 37% 29.96 in 10.0 mi SSW 6.9 mph - N/A   Clear
8:55 PM 60.8 °F 37.4 °F 42% 29.95 in 10.0 mi SW 9.2 mph - N/A   Clear
9:15 PM 59.0 °F 37.4 °F 45% 29.95 in 10.0 mi SSW 12.7 mph - N/A   Clear
9:35 PM 59.0 °F 37.4 °F 45% 29.95 in 10.0 mi WSW 10.4 mph - N/A   Clear
9:45 PM 57.2 °F 39.2 °F 51% 29.95 in 10.0 mi WSW 10.4 mph - N/A   Clear
10:10 PM 57.2 °F 39.2 °F 51% 29.94 in 10.0 mi SW 11.5 mph - N/A   Clear
10:35 PM 57.2 °F 39.2 °F 51% 29.93 in 10.0 mi SW 13.8 mph - N/A   Clear
10:45 PM 57.2 °F 39.2 °F 51% 29.93 in 10.0 mi SW 15.0 mph - N/A   Clear
11:15 PM 55.4 °F 39.2 °F 54% 29.92 in 10.0 mi WSW 12.7 mph - N/A   Clear
11:30 PM 55.4 °F 39.2 °F 54% 29.92 in 10.0 mi West 17.3 mph 26.5 mph N/A   Clear
11:55 PM 55.4 °F 39.2 °F 54% 29.91 in 10.0 mi WNW 25.3 mph - N/A   Clear